STARLINK-4385 (53198 NORAD) Tracking and Keplerian Element Data

This shows tracking and keplerian element data for the satellite.

Feedback or suggestion? Click here.




ElementValue
Catalog53198
NameSTARLINK-4385
Epoch Orbit1071
Epoch Day270.10862165
Epoch Year2022
RAAN329.9388
Inclination97.6553
Eccentricity0.0002079
Argument of Perigee98.5004
Mean Anonmoly261.6456
Mean Motion15.01261899
Decay Rate1.714E-05
L11 53198U 22084K 22270.10862165 .00001714 00000+0 13801-3 0 9992
L22 53198 97.6553 329.9388 0002079 98.5004 261.6456 15.01261899 10710

Live tracking and technical data element details for STARLINK-4385 (NORAD 53198). STARLINK-4385 can be tracked NOW for your location showing map with azimuth and elevation plus other details from your city location.

Track the satellite on the map from your city or location and see movement details for azimuth, elevation, latitude, longitude, range, height, and movement on the map or in text.







IsCatalogInMostPopularTable: catalog: 53198, numindb: 4
Update: records affected: 1



GetName: 53198 STARLINK-4385

Hit Count: updated at: Fri, 30 Sep 2022 03:48:07 GMT